Weather History for KIYA - October, 2012

Change the Weather History Date:

Friday, October 5, 2012

  Actual Average (KARA) Record (KARA)
Temperature  
Mean Temperature 76 °F 73 °F  
Max Temperature 87 °F 84 °F 93 °F (2006)
Min Temperature 64 °F 63 °F 45 °F (1948)
Degree Days  
Heating Degree Days 0 0  
Month to date heating degree days 0  
Since 1 July heating degree days 1  
Cooling Degree Days 10 9  
Month to date cooling degree days 46  
Year to date cooling degree days 2602  
Growing Degree Days 26 (Base 50)    
Moisture  
Dew Point 67 °F    
Average Humidity 82    
Maximum Humidity 100    
Minimum Humidity 40    
Precipitation  
Precipitation 0.01 in 0.21 in 1.18 in (1971)
Month to date precipitation 1.05  
Year to date precipitation 46.53  
Sea Level Pressure  
Sea Level Pressure 30.08 in    
Wind  
Wind Speed 1 mph ()    
Max Wind Speed 8 mph    
Max Gust Speed -    
Visibility 6.7 miles    
Events Fog    
T = Trace of Precipitation, MM = Missing Value Source: Averaged Metar Reports

Daily Weather History Graph

Daily Weather History Graph

Search for Another Location

Airport or City:

Trip Planner

Search our weather history database for the weather conditions in past years. The results will help you decide how hot, cold, wet, or windy it might be!

Date:

Astronomy

Oct. 05, 2012 Rise Set
Actual Time 7:04 AM CDT 6:48 PM CDT
Civil Twilight 6:40 AM CDT 7:12 PM CDT
Nautical Twilight 6:12 AM CDT 7:39 PM CDT
Astronomical Twilight 5:44 AM CDT 8:07 PM CDT
Moon 10:32 PM CDT (10/5) 11:52 AM CDT (10/5)
Length of Visible Light 12h 31m
Length of Day
11h 44m
Waning Gibbous, 74% of the Moon is Illuminated
Oct 5
Waning Gibbous
Oct 8
Last Quarter
Oct 15
New
Oct 21
First Quarter
Oct 29
Full

Hourly Weather History & Observations

Time (CDT) Temp. Heat Index Dew Point Humidity Pressure Visibility Wind Dir Wind Speed Gust Speed Precip Events Conditions
12:15 AM 68.2 °F - 68.2 °F 100% 30.13 in 10.0 mi Calm Calm - 0.01 in   Scattered Clouds
12:35 AM 68.5 °F - 68.5 °F 100% 30.14 in 10.0 mi Calm Calm - 0.01 in   Clear
12:55 AM 68.0 °F - 68.0 °F 100% 30.13 in 10.0 mi Calm Calm - 0.01 in   Clear
1:15 AM 68.5 °F - 68.5 °F 100% 30.13 in 5.0 mi Calm Calm - N/A   Clear
1:35 AM 68.2 °F - 68.2 °F 100% 30.14 in 7.0 mi Calm Calm - N/A   Clear
1:55 AM 67.6 °F - 67.6 °F 100% 30.13 in 4.0 mi Calm Calm - N/A   Clear
2:15 AM 68.0 °F - 68.0 °F 100% 30.13 in 5.0 mi Calm Calm - N/A   Clear
2:35 AM 67.8 °F - 67.8 °F 100% 30.13 in 7.0 mi Calm Calm - N/A   Clear
2:55 AM 67.1 °F - 67.1 °F 100% 30.13 in 5.0 mi Calm Calm - N/A   Clear
3:15 AM 67.1 °F - 67.1 °F 100% 30.12 in 0.8 mi Calm Calm - N/A   Mist
3:35 AM 66.6 °F - 66.6 °F 100% 30.12 in 0.8 mi Calm Calm - N/A   Mostly Cloudy
3:55 AM 66.2 °F - 66.2 °F 100% 30.11 in 0.2 mi Calm Calm - N/A Fog Fog
4:15 AM 65.3 °F - 65.3 °F 100% 30.11 in 0.2 mi Calm Calm - N/A Fog Fog
4:35 AM 65.5 °F - 65.5 °F 100% 30.11 in 0.5 mi Calm Calm - N/A Fog Fog
4:55 AM 64.9 °F - 64.9 °F 100% 30.12 in 0.2 mi Calm Calm - N/A Fog Fog
5:15 AM 65.3 °F - 65.3 °F 100% 30.12 in 0.5 mi Calm Calm - N/A Fog Fog
5:35 AM 64.8 °F - 64.8 °F 100% 30.12 in 0.2 mi Calm Calm - N/A Fog Fog
5:55 AM 64.6 °F - 64.6 °F 100% 30.13 in 0.2 mi Calm Calm - N/A Fog Fog
6:15 AM 64.6 °F - 64.6 °F 100% 30.13 in 0.2 mi Calm Calm - N/A Fog Fog
6:35 AM 64.9 °F - 64.9 °F 100% 30.13 in 0.2 mi Calm Calm - N/A Fog Fog
6:55 AM 65.7 °F - 65.7 °F 100% 30.13 in 0.2 mi Calm Calm - N/A Fog Fog
7:35 AM 67.1 °F - 67.1 °F 100% 30.13 in 0.2 mi Calm Calm - N/A Fog Fog
7:55 AM 68.4 °F - 68.4 °F 100% 30.14 in 0.2 mi Calm Calm - N/A Fog Fog
8:15 AM 69.6 °F - 69.6 °F 100% 30.14 in 0.2 mi Calm Calm - N/A Fog Fog
8:35 AM 70.0 °F - 70.0 °F 100% 30.15 in 0.2 mi Calm Calm - N/A Fog Fog
8:55 AM 70.7 °F - 70.7 °F 100% 30.15 in 0.2 mi Calm Calm - N/A Fog Fog
9:15 AM 71.6 °F - 71.6 °F 100% 30.15 in 0.2 mi Calm Calm - N/A Fog Fog
9:35 AM 72.5 °F - 72.5 °F 100% 30.15 in 0.2 mi Calm Calm - N/A Fog Fog
9:55 AM 73.4 °F - 73.4 °F 100% 30.15 in 0.2 mi Calm Calm - N/A Fog Fog
10:15 AM 74.1 °F - 74.1 °F 100% 30.15 in 0.8 mi Calm Calm - N/A   Overcast
10:35 AM 75.0 °F - 75.0 °F 100% 30.15 in 10.0 mi NE 3.5 mph - N/A   Scattered Clouds
10:55 AM 75.4 °F - 75.4 °F 100% 30.14 in 10.0 mi ENE 4.6 mph - N/A   Scattered Clouds
11:15 AM 76.5 °F - 76.3 °F 99% 30.14 in 10.0 mi East 3.5 mph - N/A   Clear
11:35 AM 81.3 °F 85.6 °F 71.6 °F 72% 30.14 in 10.0 mi ENE 3.5 mph - N/A   Clear
11:55 AM 82.8 °F 86.7 °F 69.8 °F 65% 30.13 in 10.0 mi SSE 5.8 mph - N/A   Clear
12:15 PM 83.8 °F 88.1 °F 69.8 °F 63% 30.12 in 10.0 mi SSE 4.6 mph - N/A   Clear
12:35 PM 85.6 °F 88.8 °F 67.8 °F 55% 30.11 in 10.0 mi SSE 8.1 mph - N/A   Scattered Clouds
12:55 PM 84.9 °F 87.9 °F 67.8 °F 56% 30.10 in 10.0 mi SSE 8.1 mph - N/A   Scattered Clouds
1:35 PM 86.2 °F 88.8 °F 66.6 °F 52% 30.08 in 10.0 mi South 6.9 mph - N/A   Scattered Clouds
1:55 PM 86.7 °F 88.7 °F 65.7 °F 49% 30.07 in 10.0 mi SSE 6.9 mph - N/A   Clear
2:15 PM 86.9 °F 88.9 °F 65.7 °F 49% 30.06 in 10.0 mi South 8.1 mph - N/A   Clear
2:35 PM 86.9 °F 88.3 °F 64.4 °F 47% 30.05 in 10.0 mi South 6.9 mph - N/A   Clear
2:55 PM 87.1 °F 88.3 °F 64.0 °F 46% 30.05 in 10.0 mi South 5.8 mph - N/A   Clear
3:15 PM 87.1 °F 87.2 °F 61.5 °F 42% 30.04 in 10.0 mi South 3.5 mph - N/A   Clear
3:35 PM 87.4 °F 87.4 °F 61.2 °F 41% 30.03 in 10.0 mi Calm Calm - N/A   Clear
3:55 PM 87.6 °F 87.4 °F 60.6 °F 40% 30.03 in 10.0 mi Calm Calm - N/A   Clear
4:15 PM 87.1 °F 87.2 °F 61.2 °F 42% 30.02 in 10.0 mi WSW 3.5 mph - N/A   Clear
4:35 PM 87.1 °F 87.0 °F 60.8 °F 41% 30.02 in 10.0 mi Calm Calm - N/A   Clear
4:55 PM 86.9 °F 87.2 °F 62.2 °F 43% 30.01 in 10.0 mi South 3.5 mph - N/A   Clear
5:15 PM 86.5 °F 87.0 °F 62.4 °F 44% 30.01 in 10.0 mi SSW 5.8 mph - N/A   Clear
5:35 PM 86.0 °F 87.1 °F 63.3 °F 47% 30.01 in 10.0 mi SW 4.6 mph - N/A   Clear
5:55 PM 84.6 °F 86.1 °F 64.6 °F 51% 30.01 in 10.0 mi SSW 4.6 mph - N/A   Clear
6:15 PM 83.5 °F 85.3 °F 65.3 °F 54% 30.01 in 10.0 mi SSW 3.5 mph - N/A   Clear
6:35 PM 81.0 °F 82.9 °F 65.3 °F 59% 30.01 in 10.0 mi South 3.5 mph - N/A   Clear
6:55 PM 78.4 °F - 67.1 °F 68% 30.01 in 10.0 mi South 3.5 mph - N/A   Clear
7:15 PM 76.1 °F - 67.1 °F 74% 30.02 in 10.0 mi South 4.6 mph - N/A   Clear
7:35 PM 74.8 °F - 66.6 °F 75% 30.02 in 10.0 mi South 3.5 mph - N/A   Clear
7:55 PM 75.7 °F - 67.1 °F 74% 30.02 in 10.0 mi SSW 4.6 mph - N/A   Clear
8:15 PM 75.2 °F - 67.3 °F 76% 30.02 in 10.0 mi South 3.5 mph - N/A   Clear
8:35 PM 72.7 °F - 68.0 °F 85% 30.02 in 10.0 mi Calm Calm - N/A   Clear
8:55 PM 72.5 °F - 68.4 °F 87% 30.02 in 10.0 mi Calm Calm - N/A   Clear
9:15 PM 71.4 °F - 68.2 °F 89% 30.02 in 10.0 mi SSW 3.5 mph - N/A   Clear
9:35 PM 71.1 °F - 68.2 °F 91% 30.03 in 10.0 mi Calm Calm - N/A   Clear
9:55 PM 71.6 °F - 68.9 °F 91% 30.03 in 10.0 mi Calm Calm - N/A   Clear
10:35 PM 70.0 °F - 68.5 °F 95% 30.02 in 10.0 mi Calm Calm - N/A   Clear
10:55 PM 69.3 °F - 69.3 °F 100% 30.02 in 10.0 mi Calm Calm - N/A   Clear
11:15 PM 69.1 °F - 69.1 °F 100% 30.02 in 10.0 mi Calm Calm - N/A   Clear
11:35 PM 67.1 °F - 67.1 °F 100% 30.02 in 10.0 mi Calm Calm - N/A   Clear
11:55 PM 66.6 °F - 66.6 °F 100% 30.02 in 10.0 mi Calm Calm - N/A   Clear